Back to catalog

AIST 2

AliveScienceVLEO
NORAD 39133·PAYLOAD·🇷🇺 Russia

Launched Apr 19, 2013 from Baikonur Cosmodrome

Loading…

Next Passes (next 24 hours)

TLE

FreshSource: Space-Track

Epoch: Sep 14, 2026, 14:31 UTC

1 39133U 13015D   26257.60498097  .00004263  00000-0  16706-3 0  9992
2 39133  64.8694 324.7569 0014402 256.1067 103.8462 15.27125623737557

Track AIST 2 in real time with AllMySat

Download on the App Store